Location: Hurecourt
(47.9030°N, 6.0653°E)
Time: 08:40:01
(UTC+00:00)

Cosmos 1666 Rocket - Pass Details

Date: 14 July 2020
Orbit: 603 x 633 km, 82.5° (Epoch: 14 August)

Event Time Altitude Azimuth Distance (km) Brightness Sun altitude
Exits shadow 00:23:49 38° 237° (WSW) 949 4.1 -19.8°
Maximum altitude 00:25:01 49° 283° (WNW) 796 4.1 -19.8°
Drops below altitude 10° 00:29:16 10° 359° (N) 1,978 7.3 -19.6°
Sets 00:31:34 0° 5° (N) 2,883 8.6 -19.6°
